Time,TemperatureF,DewpointF,PressureIn,WindDirection,WindDirectionDegrees,WindSpeedMPH,WindSpeedGustMPH,Humidity,HourlyPrecipIn,Conditions,Clouds,dailyrainin,SoftwareType,DateUTC
2013-01-09 00:02:00,32.2,32.0,29.77,NNW,329,0.0,0.0,100,0.00,,,0.00,weatherlink.com 1.10,2013-01-09 08:02:00,
2013-01-09 00:17:00,32.2,32.0,29.77,NNW,329,0.0,0.0,100,0.00,,,0.00,weatherlink.com 1.10,2013-01-09 08:17:00,
2013-01-09 00:32:00,32.3,32.0,29.77,NNW,329,0.0,0.0,100,0.00,,,0.00,weatherlink.com 1.10,2013-01-09 08:32:00,
2013-01-09 00:48:00,32.2,32.0,29.76,NNW,329,0.0,0.0,100,0.00,,,0.00,weatherlink.com 1.10,2013-01-09 08:48:00,
2013-01-09 01:02:00,32.2,32.0,29.76,NNW,329,0.0,0.0,100,0.00,,,0.00,weatherlink.com 1.10,2013-01-09 09:02:00,
2013-01-09 01:17:00,32.2,32.0,29.76,NNW,329,0.0,0.0,100,0.00,,,0.00,weatherlink.com 1.10,2013-01-09 09:17:00,
2013-01-09 01:32:00,32.2,32.0,29.75,NNW,329,0.0,0.0,100,0.00,,,0.00,weatherlink.com 1.10,2013-01-09 09:32:00,
2013-01-09 01:47:00,32.2,32.0,29.74,NNW,329,0.0,0.0,100,0.00,,,0.00,weatherlink.com 1.10,2013-01-09 09:47:00,
2013-01-09 02:02:00,32.2,32.0,29.74,NNW,329,0.0,0.0,100,0.00,,,0.00,weatherlink.com 1.10,2013-01-09 10:02:00,
2013-01-09 02:17:00,32.2,32.0,29.74,NW,321,0.0,0.0,100,0.00,,,0.00,weatherlink.com 1.10,2013-01-09 10:17:00,
2013-01-09 02:32:00,32.2,32.0,29.73,NW,306,0.0,0.0,100,0.00,,,0.00,weatherlink.com 1.10,2013-01-09 10:32:00,
2013-01-09 02:47:00,32.2,32.0,29.74,NW,306,0.0,0.0,100,0.00,,,0.00,weatherlink.com 1.10,2013-01-09 10:47:00,
2013-01-09 03:02:00,32.2,32.0,29.71,NW,306,0.0,0.0,100,0.00,,,0.00,weatherlink.com 1.10,2013-01-09 11:02:00,
2013-01-09 03:17:00,32.1,32.0,29.70,West,268,0.0,0.0,100,0.00,,,0.00,weatherlink.com 1.10,2013-01-09 11:17:00,
2013-01-09 03:32:00,32.1,32.0,29.71,West,268,0.0,0.0,100,0.00,,,0.00,weatherlink.com 1.10,2013-01-09 11:32:00,
2013-01-09 03:47:00,32.0,32.0,29.70,West,268,0.0,0.0,100,0.00,,,0.00,weatherlink.com 1.10,2013-01-09 11:47:00,
2013-01-09 04:02:00,32.0,32.0,29.69,West,268,0.0,0.0,100,0.00,,,0.00,weatherlink.com 1.10,2013-01-09 12:02:00,
2013-01-09 04:17:00,32.0,32.0,29.69,West,268,0.0,0.0,100,0.00,,,0.00,weatherlink.com 1.10,2013-01-09 12:17:00,
2013-01-09 04:32:00,32.0,32.0,29.68,West,268,0.0,0.0,100,0.00,,,0.00,weatherlink.com 1.10,2013-01-09 12:32:00,
2013-01-09 04:47:00,32.0,32.0,29.67,West,268,0.0,0.0,100,0.00,,,0.00,weatherlink.com 1.10,2013-01-09 12:47:00,
2013-01-09 05:02:00,31.8,32.0,29.67,West,268,0.0,0.0,100,0.00,,,0.00,weatherlink.com 1.10,2013-01-09 13:02:00,
2013-01-09 05:17:00,31.7,32.0,29.67,West,268,0.0,0.0,100,0.00,,,0.00,weatherlink.com 1.10,2013-01-09 13:17:00,
2013-01-09 05:33:00,31.5,32.0,29.66,West,268,0.0,0.0,100,0.00,,,0.00,weatherlink.com 1.10,2013-01-09 13:33:00,
2013-01-09 06:03:00,31.4,31.0,29.65,West,268,0.0,0.0,100,0.00,,,0.00,weatherlink.com 1.10,2013-01-09 14:03:00,
2013-01-09 06:18:00,31.2,31.0,29.64,West,268,0.0,0.0,100,0.00,,,0.00,weatherlink.com 1.10,2013-01-09 14:18:00,
2013-01-09 06:33:00,31.0,31.0,29.64,West,268,0.0,0.0,100,0.00,,,0.00,weatherlink.com 1.10,2013-01-09 14:33:00,
2013-01-09 06:48:00,30.9,31.0,29.63,West,268,0.0,0.0,100,0.00,,,0.00,weatherlink.com 1.10,2013-01-09 14:48:00,
2013-01-09 07:03:00,30.7,31.0,29.64,West,268,0.0,0.0,100,0.00,,,0.00,weatherlink.com 1.10,2013-01-09 15:03:00,
2013-01-09 07:18:00,30.5,31.0,29.63,West,268,0.0,0.0,100,0.00,,,0.00,weatherlink.com 1.10,2013-01-09 15:18:00,
2013-01-09 07:33:00,30.5,31.0,29.63,West,268,0.0,0.0,100,0.00,,,0.00,weatherlink.com 1.10,2013-01-09 15:33:00,
2013-01-09 07:48:00,30.5,31.0,29.64,West,268,0.0,0.0,100,0.00,,,0.00,weatherlink.com 1.10,2013-01-09 15:48:00,
2013-01-09 08:03:00,30.4,30.0,29.63,West,268,0.0,0.0,100,0.00,,,0.00,weatherlink.com 1.10,2013-01-09 16:03:00,
2013-01-09 08:18:00,30.5,31.0,29.63,West,268,0.0,0.0,100,0.00,,,0.00,weatherlink.com 1.10,2013-01-09 16:18:00,
2013-01-09 08:33:00,30.6,31.0,29.64,SSW,200,0.0,0.0,100,0.00,,,0.00,weatherlink.com 1.10,2013-01-09 16:33:00,
2013-01-09 08:48:00,30.7,31.0,29.65,SSW,200,0.0,0.0,100,0.00,,,0.00,weatherlink.com 1.10,2013-01-09 16:48:00,
2013-01-09 09:03:00,30.9,31.0,29.64,SSW,200,0.0,0.0,100,0.00,,,0.00,weatherlink.com 1.10,2013-01-09 17:03:00,
2013-01-09 09:18:00,31.1,31.0,29.65,SSW,200,0.0,0.0,100,0.00,,,0.00,weatherlink.com 1.10,2013-01-09 17:18:00,
2013-01-09 09:33:00,31.4,31.0,29.65,SSW,200,0.0,0.0,100,0.00,,,0.00,weatherlink.com 1.10,2013-01-09 17:33:00,
2013-01-09 10:03:00,32.3,32.0,29.66,SSW,200,0.0,0.0,100,0.00,,,0.00,weatherlink.com 1.10,2013-01-09 18:03:00,
2013-01-09 10:18:00,32.7,33.0,29.66,SSW,200,0.0,0.0,100,0.00,,,0.00,weatherlink.com 1.10,2013-01-09 18:18:00,
2013-01-09 10:33:00,32.7,33.0,29.67,SSW,200,0.0,0.0,100,0.00,,,0.00,weatherlink.com 1.10,2013-01-09 18:33:00,
2013-01-09 11:03:00,32.8,33.0,29.66,South,173,0.0,0.0,100,0.00,,,0.00,weatherlink.com 1.10,2013-01-09 19:03:00,
2013-01-09 11:18:00,33.0,33.0,29.66,South,173,0.0,0.0,100,0.00,,,0.00,weatherlink.com 1.10,2013-01-09 19:18:00,
2013-01-09 11:33:00,33.1,33.0,29.67,South,173,0.0,0.0,100,0.00,,,0.00,weatherlink.com 1.10,2013-01-09 19:33:00,
2013-01-09 11:48:00,33.4,33.0,29.67,South,173,0.0,1.0,100,0.00,,,0.00,weatherlink.com 1.10,2013-01-09 19:48:00,
2013-01-09 12:03:00,33.8,34.0,29.66,South,173,0.0,0.0,99,0.00,,,0.00,weatherlink.com 1.10,2013-01-09 20:03:00,
2013-01-09 12:18:00,34.7,34.0,29.66,South,179,0.0,0.0,98,0.00,,,0.00,weatherlink.com 1.10,2013-01-09 20:18:00,
2013-01-09 12:33:00,35.7,35.0,29.65,SW,221,0.0,0.0,97,0.00,,,0.00,weatherlink.com 1.10,2013-01-09 20:33:00,
2013-01-09 12:48:00,36.5,36.0,29.67,WNW,282,0.0,2.0,96,0.00,,,0.00,weatherlink.com 1.10,2013-01-09 20:48:00,
2013-01-09 13:03:00,35.6,35.0,29.67,NW,310,0.0,1.0,97,0.00,,,0.00,weatherlink.com 1.10,2013-01-09 21:03:00,
2013-01-09 13:18:00,35.2,35.0,29.68,WNW,294,0.0,0.0,98,0.00,,,0.00,weatherlink.com 1.10,2013-01-09 21:18:00,
2013-01-09 13:33:00,34.9,34.0,29.69,North,10,0.0,0.0,98,0.00,,,0.00,weatherlink.com 1.10,2013-01-09 21:33:00,
2013-01-09 13:48:00,34.6,34.0,29.70,NNW,329,0.0,1.0,98,0.00,,,0.00,weatherlink.com 1.10,2013-01-09 21:48:00,
2013-01-09 14:03:00,34.4,34.0,29.71,NNW,330,0.0,0.0,99,0.00,,,0.00,weatherlink.com 1.10,2013-01-09 22:03:00,
2013-01-09 14:18:00,34.6,34.0,29.71,NNW,330,0.0,0.0,99,0.00,,,0.00,weatherlink.com 1.10,2013-01-09 22:18:00,
2013-01-09 14:33:00,34.2,34.0,29.72,NNW,330,0.0,0.0,99,0.00,,,0.00,weatherlink.com 1.10,2013-01-09 22:33:00,
2013-01-09 14:48:00,34.2,34.0,29.73,NNW,327,0.0,0.0,99,0.00,,,0.00,weatherlink.com 1.10,2013-01-09 22:48:00,
2013-01-09 15:03:00,34.1,34.0,29.73,NNW,327,0.0,0.0,99,0.00,,,0.00,weatherlink.com 1.10,2013-01-09 23:03:00,
2013-01-09 15:18:00,34.0,34.0,29.74,NNW,327,0.0,0.0,99,0.00,,,0.00,weatherlink.com 1.10,2013-01-09 23:18:00,
2013-01-09 15:33:00,33.5,33.0,29.74,NNW,327,0.0,0.0,99,0.00,,,0.00,weatherlink.com 1.10,2013-01-09 23:33:00,
2013-01-09 15:48:00,33.2,33.0,29.75,NNW,327,0.0,0.0,99,0.00,,,0.00,weatherlink.com 1.10,2013-01-09 23:48:00,
2013-01-09 16:03:00,32.9,33.0,29.75,NNW,327,0.0,0.0,99,0.00,,,0.00,weatherlink.com 1.10,2013-01-10 00:03:00,
2013-01-09 16:18:00,32.6,32.0,29.76,NNW,327,0.0,0.0,99,0.00,,,0.00,weatherlink.com 1.10,2013-01-10 00:18:00,
2013-01-09 16:33:00,32.4,32.0,29.76,NE,45,0.0,0.0,99,0.00,,,0.00,weatherlink.com 1.10,2013-01-10 00:33:00,
2013-01-09 16:48:00,32.1,32.0,29.76,NE,45,0.0,0.0,99,0.00,,,0.00,weatherlink.com 1.10,2013-01-10 00:48:00,
2013-01-09 17:03:00,31.9,32.0,29.77,NE,45,0.0,0.0,99,0.00,,,0.00,weatherlink.com 1.10,2013-01-10 01:03:00,
2013-01-09 17:18:00,31.9,32.0,29.77,NE,45,0.0,0.0,100,0.00,,,0.00,weatherlink.com 1.10,2013-01-10 01:18:00,
2013-01-09 17:33:00,31.8,32.0,29.77,NE,45,0.0,0.0,100,0.00,,,0.00,weatherlink.com 1.10,2013-01-10 01:33:00,
2013-01-09 17:48:00,31.8,32.0,29.78,NE,45,0.0,0.0,100,0.00,,,0.00,weatherlink.com 1.10,2013-01-10 01:48:00,
2013-01-09 18:03:00,31.9,32.0,29.78,NE,45,0.0,0.0,100,0.00,,,0.00,weatherlink.com 1.10,2013-01-10 02:03:00,
2013-01-09 18:18:00,31.9,32.0,29.79,NE,45,0.0,0.0,100,0.00,,,0.00,weatherlink.com 1.10,2013-01-10 02:18:00,
2013-01-09 18:33:00,31.7,32.0,29.79,NE,45,0.0,0.0,100,0.00,,,0.00,weatherlink.com 1.10,2013-01-10 02:33:00,
2013-01-09 18:48:00,31.4,31.0,29.80,NE,45,0.0,0.0,100,0.00,,,0.00,weatherlink.com 1.10,2013-01-10 02:48:00,
2013-01-09 19:03:00,31.4,31.0,29.82,NE,45,0.0,0.0,100,0.00,,,0.00,weatherlink.com 1.10,2013-01-10 03:03:00,
2013-01-09 19:18:00,31.6,32.0,29.82,ENE,66,0.0,1.0,100,0.00,,,0.00,weatherlink.com 1.10,2013-01-10 03:18:00,
2013-01-09 19:33:00,31.8,32.0,29.82,ENE,66,0.0,0.0,100,0.00,,,0.00,weatherlink.com 1.10,2013-01-10 03:33:00,
2013-01-09 19:48:00,31.8,32.0,29.81,ENE,66,0.0,0.0,100,0.00,,,0.00,weatherlink.com 1.10,2013-01-10 03:48:00,
2013-01-09 20:03:00,31.6,32.0,29.81,ENE,66,0.0,0.0,100,0.00,,,0.00,weatherlink.com 1.10,2013-01-10 04:03:00,
2013-01-09 20:49:00,31.5,32.0,29.84,SE,136,0.0,0.0,100,0.00,,,0.00,weatherlink.com 1.10,2013-01-10 04:49:00,
2013-01-09 21:04:00,31.4,31.0,29.84,SE,136,0.0,0.0,100,0.00,,,0.00,weatherlink.com 1.10,2013-01-10 05:04:00,
2013-01-09 21:19:00,31.2,31.0,29.84,SE,136,0.0,0.0,100,0.00,,,0.00,weatherlink.com 1.10,2013-01-10 05:19:00,
2013-01-09 21:49:00,30.8,31.0,29.85,SE,136,0.0,0.0,100,0.00,,,0.00,weatherlink.com 1.10,2013-01-10 05:49:00,
2013-01-09 22:03:00,30.7,31.0,29.85,SE,136,0.0,0.0,100,0.00,,,0.00,weatherlink.com 1.10,2013-01-10 06:03:00,
2013-01-09 22:18:00,30.5,31.0,29.86,SE,136,0.0,0.0,100,0.00,,,0.00,weatherlink.com 1.10,2013-01-10 06:18:00,
2013-01-09 22:34:00,30.3,30.0,29.86,SE,136,0.0,0.0,100,0.00,,,0.00,weatherlink.com 1.10,2013-01-10 06:34:00,
2013-01-09 22:49:00,30.0,30.0,29.86,SE,136,0.0,0.0,100,0.00,,,0.00,weatherlink.com 1.10,2013-01-10 06:49:00,
2013-01-09 23:04:00,29.8,30.0,29.86,SE,137,0.0,0.0,100,0.00,,,0.00,weatherlink.com 1.10,2013-01-10 07:04:00,
2013-01-09 23:19:00,29.6,30.0,29.86,SE,137,0.0,0.0,100,0.00,,,0.00,weatherlink.com 1.10,2013-01-10 07:19:00,
2013-01-09 23:34:00,29.5,30.0,29.86,SE,137,0.0,0.0,100,0.00,,,0.00,weatherlink.com 1.10,2013-01-10 07:34:00,
2013-01-09 23:49:00,29.4,29.0,29.87,SE,137,0.0,0.0,100,0.00,,,0.00,weatherlink.com 1.10,2013-01-10 07:49:00,